Temp_Advection
nan nan nan nan nan nan nan nan nan nan nan nan nan nan nan nan nan nan nan nan nan nan nan nan nan nan nan nan nan nan nan nan nan nan nan nan nan nan nan nan nan nan nan nan nan
nan 0 0 0 0 0 0 0 0 1 0 0 -0 0 0 0 0 -1 -1 -0 -0 0 0 0 0 0 -0 0 1 1 -1 -0 -0 -0 -0 0 0 -0 -0 -0 -0 -0 0 0 nan
nan 0 0 0 0 0 -0 -0 0 0 0 0 0 0 0 0 -0 -1 -0 -0 -0 0 0 0 -0 -0 -0 -1 -0 -0 -0 -1 -0 -0 -0 0 0 -0 -0 -0 -0 -0 -0 1 nan
nan 0 0 0 0 0 0 -0 0 0 0 0 0 0 0 -0 -0 -0 -0 -0 0 0 0 -0 -0 -0 -0 -1 -0 -1 0 -1 -0 -0 -0 0 0 -0 0 0 0 0 -0 0 nan
nan -0 -0 0 0 0 0 -0 -0 0 0 0 0 0 0 -0 -1 -0 -0 -0 0 0 0 -0 -1 -0 -0 -0 -1 -0 -0 -1 -0 -0 -0 -0 -0 0 0 0 0 0 1 0 nan
nan 0 -0 -0 0 0 0 0 -0 0 0 0 0 0 -0 -0 -0 -0 -0 0 0 -0 -0 -1 -0 -0 0 -0 -1 0 -1 -0 -0 -0 -0 -0 0 0 0 0 1 0 0 0 nan
nan -0 0 -0 -0 0 0 0 -0 -0 0 0 0 -0 -0 -1 -0 0 -0 -0 -0 -0 -0 -0 -0 -0 0 0 0 -1 -0 -0 -0 -0 -0 0 -1 -0 0 0 0 0 0 0 nan
nan -0 -0 -0 -0 0 -0 0 0 -0 -0 0 0 0 -0 -0 0 0 -0 0 0 0 -0 -0 -0 -0 0 0 0 -0 -0 -0 -0 -0 0 -0 -1 1 1 -0 -0 -0 0 0 nan
nan -1 -0 -0 -0 -0 0 0 0 0 0 0 0 -0 -0 -0 -0 -0 0 -0 -0 0 -0 -0 -0 -0 -0 -0 -0 -0 -0 -0 0 -0 0 -1 0 -0 0 -0 -0 -0 -0 -0 nan
nan -1 -1 -0 -0 -0 -0 0 0 0 0 -0 -0 -0 -1 -0 -0 0 -0 -0 -0 -0 -0 -0 -0 -0 -1 -0 -1 -1 -0 -0 -0 0 -0 -0 0 -0 -0 0 -0 -0 -0 -0 nan
nan -1 -1 -0 -0 -0 -0 0 0 0 -1 -1 -0 -0 -0 -0 0 0 -0 -0 -0 -1 -1 -0 -0 -1 -1 0 0 0 -0 -0 1 0 -0 -1 -0 0 -0 -0 -0 0 0 0 nan
nan -1 -1 -1 -0 -0 -0 -0 -0 0 -0 -0 0 0 0 0 -0 -0 -0 -0 -1 -1 -0 -0 -1 -0 0 1 0 0 -0 0 -0 0 -0 0 -1 0 -0 -0 0 0 0 0 nan
nan -1 -1 -1 -1 -0 -0 -0 0 -0 -0 -0 1 0 0 0 -0 -0 -0 -0 -0 -0 -0 -1 0 1 0 -0 -0 -0 0 0 0 -1 -0 -0 -1 0 -0 0 0 0 1 0 nan
nan -0 -1 -1 -1 -0 -0 -0 -0 -0 -0 0 0 -0 0 -0 -0 0 -0 -0 -0 0 -0 0 1 0 0 -1 -0 0 1 0 1 -0 0 -0 -0 -0 1 0 -0 0 1 1 nan
nan -1 -0 -0 -1 -1 -0 -0 0 -0 -0 0 -0 0 -0 -0 -0 0 0 -0 0 0 0 0 1 0 -0 1 1 0 0 0 0 0 0 -0 -0 -0 -0 -1 -1 0 1 1 nan
nan -1 -1 -0 -1 -0 -0 0 0 -0 -0 0 -0 -0 -0 0 -0 -0 0 0 0 0 0 0 0 0 0 -0 0 1 0 0 0 0 -0 0 0 0 -0 0 0 1 1 1 nan
nan -1 -1 -0 -1 -0 -0 -0 -0 -1 -0 0 -0 0 -0 0 -0 -0 -0 -0 -0 -0 -0 -0 -0 0 0 -0 0 -0 -1 -0 -0 -0 0 0 -0 -0 0 0 0 1 1 1 nan
nan -1 -1 -1 -0 -0 -0 -0 -1 -1 0 -0 -0 0 0 0 -0 -0 -0 -1 -0 -0 -0 -1 -0 0 0 0 -0 -0 0 0 0 0 0 -0 -1 0 -0 0 0 0 1 1 nan
nan -1 -1 -1 0 0 -0 -1 -1 -0 0 -1 -0 -0 -0 -0 0 -0 -0 -1 -0 -0 0 -0 -0 -0 0 0 0 0 0 -0 -0 -0 -0 -0 0 0 -0 -0 -0 -0 0 0 nan
nan -1 -1 -0 1 0 -0 -2 -1 0 0 -0 -1 -0 -0 0 -0 -0 -0 -0 0 0 0 0 -0 0 0 0 0 -0 0 0 0 -1 -0 -0 -0 0 -0 -1 -0 -0 -1 -0 nan
nan -1 -1 0 0 -0 -1 -1 -1 -0 -0 -0 0 0 0 0 -0 -0 -0 -0 0 0 0 0 -0 -0 -0 -0 0 0 -0 -0 -0 -0 0 0 0 -0 0 0 -0 -0 0 -0 nan
nan -0 -0 -0 -0 -0 -1 -1 -1 -0 -0 0 -0 -0 1 0 0 -0 -0 0 2 -0 -0 0 -0 -0 0 -0 -0 -0 -0 -0 0 0 0 -0 0 -0 0 1 1 0 1 1 nan
nan -1 -0 0 -0 -1 -0 0 -1 -1 -0 -0 -0 0 0 0 0 0 1 -0 1 0 0 0 0 -1 -0 -0 -0 -0 0 0 -0 0 -0 -0 0 -0 0 0 1 1 0 1 nan
nan -0 -0 0 -0 -1 -0 -0 -1 -1 -1 -0 0 0 -0 -0 0 0 0 -0 0 0 1 -0 0 -1 0 0 -1 -0 -0 0 -0 -0 -0 -0 0 -1 -1 -0 0 1 0 0 nan
nan -0 -0 -0 -0 0 0 -1 -3 -1 -1 0 0 -1 -0 -0 -0 0 -0 -0 -0 0 0 1 0 1 -0 0 0 -0 0 0 0 -1 0 0 0 0 -0 -0 0 0 0 0 nan
nan -0 -0 -1 -2 -1 0 -0 -1 -2 -1 -0 -1 -0 0 -0 0 0 -0 -0 -0 -0 -0 0 -0 -0 0 0 0 0 0 -0 -1 -0 0 0 0 -0 1 -0 -0 0 0 0 nan
nan nan nan nan nan nan nan nan nan nan nan nan nan nan nan nan nan nan nan nan nan nan nan nan nan nan nan nan nan nan nan nan nan nan nan nan nan nan nan nan nan nan nan nan nan
Wind_Speed
12 11 9 12 10 7 11 13 18 16 12 8 6 5 9 14 16 18 17 18 20 8 17 20 17 18 10 13 11 13 5 5 3 4 3 12 9 6 5 10 6 6 5 9 24
13 12 12 10 13 10 7 12 18 17 12 6 5 2 6 10 12 18 15 20 13 20 16 19 18 18 8 9 11 8 4 3 4 5 2 11 8 13 8 10 6 7 9 16 25
13 14 14 13 11 16 10 10 16 17 13 7 6 5 7 8 8 16 15 15 15 19 15 15 14 16 9 11 10 11 6 6 4 5 3 9 6 8 8 9 11 15 17 23 24
14 14 15 15 14 14 18 11 12 16 12 9 6 7 8 9 6 6 14 13 17 16 17 14 17 8 8 12 11 11 9 9 7 4 1 5 7 6 13 2 7 10 18 23 22
15 14 14 16 15 15 17 15 10 14 12 10 6 6 8 7 11 1 1 10 16 18 19 17 22 10 11 13 10 6 6 11 11 5 4 4 6 4 10 5 8 15 20 21 19
18 17 14 14 13 16 12 17 9 10 11 11 5 7 8 8 9 13 2 10 15 19 19 20 15 12 8 17 14 17 15 10 8 2 3 5 4 2 8 11 12 19 19 18 18
20 20 16 12 12 14 11 14 13 7 10 8 5 7 9 13 4 6 10 14 17 21 20 22 13 10 11 18 6 22 8 5 8 6 4 3 8 10 7 13 16 19 18 17 17
18 20 18 15 11 12 13 9 14 7 8 7 8 9 8 7 9 16 12 16 21 22 20 19 19 12 4 13 8 9 6 7 4 11 3 7 11 11 10 16 18 20 18 18 17
20 18 20 16 13 11 10 10 11 13 8 11 10 9 7 8 13 13 20 19 19 19 17 12 16 7 7 10 6 4 6 5 2 11 5 12 6 4 10 15 18 21 20 19 17
20 20 18 18 15 12 10 9 10 12 8 8 10 6 13 8 9 16 17 16 15 16 10 11 8 10 8 12 16 14 7 7 19 10 11 11 14 4 10 15 19 21 20 19 18
21 21 18 17 16 14 9 6 2 5 18 14 9 10 5 11 9 14 17 17 12 16 12 14 11 18 21 16 1 12 14 9 8 7 10 16 12 13 12 16 19 21 21 20 19
21 21 20 17 17 14 11 8 8 4 11 21 34 23 9 8 7 14 18 15 14 15 13 8 19 18 11 11 5 11 14 10 3 6 9 7 15 14 16 20 25 25 23 22 21
19 20 22 20 16 11 11 14 15 12 6 15 26 25 16 17 10 18 21 12 16 18 17 18 15 11 11 10 10 8 12 9 2 8 5 4 8 12 14 17 20 24 24 23 25
21 19 20 23 7 9 5 6 8 8 4 6 7 9 22 13 6 15 27 9 7 20 17 10 8 16 12 17 15 15 7 8 11 10 4 3 4 7 14 15 17 25 27 26 25
22 19 17 17 18 11 6 5 3 4 6 5 4 7 13 18 15 13 28 12 12 10 10 8 12 15 16 12 15 4 8 8 6 4 2 6 4 3 6 13 19 24 28 26 27
24 21 18 16 19 10 8 4 5 4 9 6 7 8 11 10 8 11 12 8 4 5 3 2 1 4 5 5 4 17 11 7 4 2 6 11 10 7 7 7 8 22 24 27 27
27 24 21 20 15 11 4 5 4 8 1 8 7 9 17 11 7 12 17 14 10 9 13 4 6 3 9 10 9 6 15 4 4 4 6 1 7 11 4 4 3 14 24 26 26
32 29 26 22 22 15 6 6 13 11 12 3 6 9 13 12 10 12 14 19 16 6 11 11 7 11 8 5 11 16 10 5 8 6 5 3 8 4 2 3 3 6 18 23 26
34 29 20 21 24 18 15 13 12 14 7 13 9 7 13 12 5 12 18 22 16 15 8 12 7 2 2 3 6 8 8 3 6 1 3 6 5 7 6 5 6 13 19 24 27
37 23 15 12 18 23 12 27 15 7 6 8 17 15 17 18 11 17 19 17 14 17 5 6 6 3 3 3 3 3 11 4 2 6 6 5 5 4 11 12 10 14 21 23 24
29 13 8 9 19 16 14 15 21 16 7 11 15 14 10 13 18 13 16 7 22 17 11 7 3 5 6 10 13 5 6 2 2 3 4 4 4 1 5 14 15 17 21 24 24
17 6 10 10 11 8 16 14 20 14 23 11 3 6 13 15 16 16 17 10 17 19 18 9 5 5 8 2 4 4 7 10 5 6 2 2 2 2 6 8 13 19 21 22 23
16 15 7 16 6 12 15 16 24 21 21 8 11 9 4 11 8 18 11 1 14 17 21 13 7 6 4 3 3 8 9 8 4 1 8 7 3 2 3 7 11 21 23 23 24
8 4 7 8 13 13 15 23 27 31 27 18 9 7 5 7 4 10 8 1 8 9 9 21 6 13 13 4 11 10 18 15 11 4 8 9 5 8 9 11 15 21 24 24 23
6 4 7 7 12 14 17 11 24 28 31 30 10 18 14 9 8 6 6 4 2 4 4 10 7 9 3 3 6 6 18 23 18 18 10 11 10 12 16 16 20 24 25 25 24
7 6 8 23 23 17 15 7 17 23 22 25 25 22 14 12 14 11 11 8 6 7 8 3 4 4 3 3 4 4 10 22 22 17 13 2 10 3 13 19 21 25 27 26 24
14 20 16 13 16 13 9 13 19 25 26 27 25 17 19 17 4 3 6 11 10 13 15 10 7 4 7 4 3 5 16 21 18 19 17 14 9 13 10 18 26 27 26 26 24
Wind_Direction
325 328 329 321 318 333 346 355 358 349 336 303 305 296 237 227 221 222 216 232 231 231 200 203 193 177 156 161 151 69 280 247 264 187 162 156 172 157 165 146 156 176 156 156 176
316 316 314 310 310 312 325 324 328 344 338 324 326 254 230 218 226 241 247 226 224 214 204 192 180 173 169 142 157 123 272 250 348 291 354 179 192 164 168 162 178 168 174 160 171
315 306 304 302 304 305 308 320 323 325 326 320 326 239 221 229 252 252 254 236 222 201 198 193 181 178 177 159 158 158 211 356 326 304 314 199 197 176 176 196 199 192 169 162 169
329 308 299 297 298 301 304 310 320 314 316 298 282 251 224 205 228 220 221 232 216 198 193 189 180 189 173 172 180 160 210 291 312 327 296 204 181 198 201 169 196 181 177 167 168
338 323 300 295 297 295 303 301 315 312 309 293 267 227 199 208 246 332 198 194 188 210 196 193 188 191 192 164 152 169 123 280 263 269 262 210 211 239 215 192 172 164 169 168 167
343 336 315 295 294 293 302 299 300 304 300 292 241 207 187 244 263 238 324 212 208 208 203 204 204 206 224 174 175 173 142 242 249 223 243 232 221 220 205 192 168 171 169 169 171
346 337 329 305 295 294 293 299 287 288 292 282 231 207 219 238 245 233 221 233 222 215 209 207 220 213 172 161 146 129 125 259 244 219 226 208 238 229 186 176 170 171 173 172 173
340 342 336 317 294 286 290 285 285 259 270 281 245 220 249 268 252 235 246 226 219 223 213 215 212 213 217 135 112 149 159 182 172 175 202 192 246 210 180 176 179 177 177 173 176
338 337 336 328 305 286 278 275 270 269 228 256 246 220 251 251 231 223 230 221 211 209 198 206 211 187 154 174 142 207 173 214 345 200 166 209 245 152 180 189 183 182 181 176 174
338 335 334 330 314 295 281 266 260 265 242 223 229 234 239 227 230 212 215 212 188 177 175 181 194 193 194 195 187 176 170 201 221 196 211 207 240 187 192 194 191 188 186 183 181
334 332 327 329 320 300 279 253 210 234 217 216 219 217 170 208 216 201 201 185 180 176 184 190 199 203 201 201 84 186 200 197 201 180 196 219 239 222 194 203 200 195 193 191 185
315 325 325 320 318 300 274 223 217 245 285 256 243 231 205 188 171 200 190 180 188 187 183 182 215 201 184 186 150 174 185 193 145 177 212 209 243 231 202 209 204 199 197 193 182
303 313 321 323 319 294 272 261 253 275 262 264 234 216 214 201 191 196 185 201 193 192 200 202 206 163 172 171 177 198 209 179 205 165 212 253 252 208 212 210 207 209 205 196 189
298 296 314 324 320 321 327 289 266 254 277 246 201 212 204 171 198 204 192 190 190 200 194 224 177 176 181 194 194 211 193 162 149 181 230 235 256 202 195 205 207 201 199 194 189
326 304 294 306 309 312 281 318 185 172 282 133 147 177 192 176 137 177 192 211 202 176 190 184 177 177 191 197 189 173 153 148 154 163 249 188 250 199 169 217 212 204 198 194 189
328 325 283 302 293 299 282 209 156 218 245 182 142 181 173 211 138 134 171 201 149 152 176 145 190 198 170 106 195 138 120 92 104 154 248 224 225 228 194 215 205 198 195 191 185
330 322 306 269 267 283 299 179 192 225 123 184 175 170 198 197 153 165 177 189 179 169 190 158 174 154 150 105 142 189 162 144 193 193 236 159 217 252 186 165 160 193 188 184 180
327 319 307 265 253 258 236 211 228 202 203 114 141 155 192 168 204 159 177 205 223 215 164 177 198 183 172 206 179 182 198 185 188 193 192 144 227 227 149 160 176 179 174 171 173
332 329 303 296 240 239 199 217 219 208 180 155 139 169 200 210 216 186 191 209 213 204 202 186 173 132 175 156 170 168 211 70 103 27 205 189 239 225 167 170 161 150 160 168 171
335 337 311 323 217 221 209 233 221 214 140 181 190 191 189 191 192 201 181 196 206 201 233 185 147 187 127 146 51 233 145 161 232 181 219 192 257 238 191 185 165 165 169 166 167
340 329 303 284 200 198 222 225 225 242 204 192 209 188 208 180 202 204 202 175 196 182 185 161 124 139 161 214 181 156 188 201 181 277 225 195 213 34 200 175 173 171 169 165 163
331 309 286 299 217 216 242 238 252 256 237 248 246 226 186 181 190 201 212 230 185 157 184 172 117 155 187 27 308 253 201 186 192 188 225 355 237 117 112 141 166 163 161 161 161
315 296 317 239 234 248 248 236 245 233 242 233 229 213 183 181 186 208 200 67 169 173 178 171 171 125 156 210 195 219 194 200 109 78 193 181 199 152 141 149 163 162 162 160 160
305 299 292 256 259 277 254 247 231 224 235 234 249 182 156 201 206 182 196 131 190 200 170 169 161 209 212 188 145 197 199 194 192 189 181 220 164 189 184 172 165 166 164 161 159
275 257 288 295 305 300 285 274 250 223 218 218 232 224 210 205 186 175 164 133 156 189 176 181 177 194 54 129 171 193 195 189 200 208 200 219 211 188 188 177 168 162 160 158 159
295 341 305 294 287 292 293 261 251 238 216 216 220 217 210 206 196 189 157 180 182 173 176 195 139 114 130 147 183 192 203 200 211 210 237 195 210 106 147 151 158 165 164 164 163
310 314 283 285 288 295 298 314 305 248 231 229 207 203 206 217 163 333 154 155 160 173 180 160 143 165 185 151 143 269 208 191 201 206 207 206 206 155 165 171 170 167 169 166 163
Height
1531 1530 1528 1527 1525 1522 1521 1520 1517 1514 1510 1508 1506 1506 1507 1508 1510 1511 1510 1515 1516 1516 1515 1517 1521 1523 1526 1526 1530 1531 1539 1532 1526 1528 1521 1527 1529 1532 1533 1535 1538 1539 1541 1541 1544
1530 1529 1527 1525 1524 1521 1519 1518 1517 1514 1512 1509 1507 1506 1507 1508 1510 1509 1511 1512 1513 1514 1515 1516 1518 1522 1526 1527 1529 1535 1541 1530 1531 1530 1523 1527 1529 1531 1534 1535 1537 1538 1538 1539 1543
1528 1527 1526 1525 1523 1523 1519 1515 1515 1513 1511 1509 1507 1507 1507 1508 1510 1506 1507 1507 1511 1512 1515 1517 1519 1522 1523 1525 1530 1534 1540 1534 1531 1531 1528 1529 1531 1531 1531 1533 1532 1534 1536 1538 1542
1526 1525 1524 1522 1522 1520 1520 1515 1512 1512 1510 1507 1506 1506 1507 1508 1508 1503 1504 1505 1508 1512 1513 1515 1517 1520 1519 1520 1523 1527 1529 1537 1530 1530 1530 1531 1530 1529 1530 1530 1531 1533 1535 1537 1541
1525 1522 1520 1519 1519 1518 1517 1515 1510 1511 1509 1507 1505 1504 1506 1507 1505 1502 1501 1503 1506 1509 1510 1514 1515 1515 1513 1516 1521 1517 1521 1533 1535 1532 1531 1531 1530 1528 1528 1529 1530 1532 1535 1538 1541
1524 1520 1517 1515 1515 1514 1513 1514 1510 1509 1508 1507 1503 1503 1504 1506 1502 1502 1502 1502 1505 1507 1507 1513 1512 1513 1512 1512 1514 1511 1524 1535 1534 1531 1531 1531 1530 1529 1526 1527 1529 1531 1535 1537 1540
1523 1519 1515 1513 1512 1512 1511 1510 1510 1507 1508 1507 1503 1502 1500 1499 1499 1501 1500 1501 1504 1505 1508 1510 1512 1513 1510 1512 1515 1511 1528 1534 1530 1531 1529 1530 1528 1523 1524 1525 1529 1531 1535 1537 1539
1521 1517 1514 1511 1509 1508 1510 1508 1508 1505 1506 1506 1504 1500 1497 1494 1496 1500 1500 1500 1503 1506 1508 1508 1511 1513 1511 1510 1515 1519 1524 1532 1526 1527 1527 1531 1513 1515 1521 1524 1527 1530 1534 1536 1538
1519 1516 1512 1508 1506 1505 1504 1506 1505 1506 1503 1504 1504 1500 1493 1490 1492 1497 1499 1500 1501 1504 1504 1506 1510 1509 1511 1506 1512 1512 1510 1520 1517 1524 1527 1528 1510 1518 1520 1522 1524 1528 1532 1534 1537
1516 1514 1510 1507 1504 1502 1502 1501 1501 1504 1504 1503 1501 1504 1489 1485 1488 1493 1496 1499 1499 1501 1503 1505 1506 1502 1502 1497 1497 1497 1510 1516 1514 1518 1525 1522 1513 1516 1519 1520 1521 1526 1529 1532 1534
1513 1509 1507 1505 1502 1499 1500 1500 1501 1502 1499 1494 1489 1486 1481 1483 1486 1490 1493 1496 1498 1498 1494 1500 1498 1491 1488 1490 1493 1494 1501 1508 1510 1517 1516 1513 1509 1509 1515 1519 1519 1521 1525 1529 1532
1509 1506 1502 1501 1499 1497 1496 1495 1493 1493 1490 1486 1485 1485 1482 1480 1484 1488 1492 1494 1492 1490 1493 1499 1489 1485 1490 1497 1499 1499 1500 1506 1516 1517 1515 1511 1506 1505 1510 1510 1512 1515 1520 1524 1529
1504 1502 1499 1496 1494 1493 1492 1493 1491 1490 1487 1476 1472 1474 1478 1479 1479 1483 1487 1490 1487 1487 1488 1485 1481 1489 1491 1496 1498 1499 1495 1502 1500 1513 1513 1510 1495 1495 1500 1505 1508 1511 1515 1520 1523
1499 1498 1495 1493 1494 1491 1488 1488 1488 1489 1486 1466 1467 1467 1473 1472 1475 1478 1483 1487 1486 1484 1488 1484 1487 1485 1489 1489 1491 1496 1498 1499 1505 1501 1495 1508 1484 1485 1488 1497 1501 1504 1508 1513 1519
1494 1493 1492 1490 1490 1489 1489 1486 1487 1490 1483 1460 1464 1464 1467 1465 1464 1473 1479 1483 1479 1479 1484 1480 1484 1485 1484 1482 1489 1488 1499 1500 1503 1501 1501 1503 1499 1468 1493 1491 1490 1495 1501 1508 1514
1489 1487 1487 1485 1485 1486 1485 1486 1488 1489 1476 1457 1457 1463 1467 1465 1459 1468 1476 1481 1481 1481 1482 1481 1485 1484 1479 1491 1490 1496 1497 1502 1504 1501 1502 1482 1489 1467 1474 1475 1478 1488 1496 1502 1509
1483 1481 1482 1482 1482 1482 1483 1485 1486 1473 1450 1448 1450 1456 1460 1462 1459 1459 1467 1473 1468 1475 1474 1483 1482 1484 1484 1488 1496 1491 1486 1503 1507 1509 1494 1505 1502 1464 1472 1477 1480 1482 1490 1497 1504
1475 1473 1472 1472 1475 1478 1480 1482 1467 1433 1435 1442 1445 1449 1453 1456 1455 1452 1461 1463 1465 1462 1462 1469 1481 1478 1476 1475 1477 1483 1474 1481 1493 1491 1477 1510 1486 1461 1474 1479 1481 1482 1487 1494 1501
1468 1465 1461 1461 1468 1471 1477 1465 1425 1428 1425 1434 1442 1444 1447 1449 1452 1449 1445 1450 1448 1455 1447 1454 1462 1478 1479 1478 1474 1480 1482 1480 1489 1505 1485 1473 1471 1467 1475 1479 1480 1482 1487 1492 1499
1463 1457 1454 1451 1456 1462 1464 1433 1422 1421 1422 1425 1418 1423 1426 1435 1442 1440 1439 1428 1439 1444 1449 1446 1461 1477 1479 1478 1480 1475 1476 1482 1485 1493 1477 1470 1472 1446 1468 1471 1477 1482 1486 1492 1499
1462 1458 1450 1448 1451 1451 1432 1422 1422 1421 1421 1419 1411 1416 1416 1423 1426 1430 1422 1423 1422 1436 1445 1447 1448 1477 1478 1470 1463 1477 1473 1476 1471 1469 1457 1460 1452 1454 1455 1462 1472 1479 1485 1491 1497
1463 1460 1448 1447 1443 1433 1422 1420 1424 1420 1419 1417 1414 1411 1410 1414 1417 1420 1416 1411 1414 1421 1433 1441 1450 1463 1462 1472 1473 1466 1461 1460 1457 1474 1476 1470 1453 1463 1465 1467 1472 1479 1485 1491 1497
1461 1453 1441 1444 1437 1428 1420 1420 1419 1415 1413 1411 1405 1405 1409 1407 1411 1410 1412 1417 1418 1416 1417 1433 1440 1461 1467 1470 1472 1465 1462 1457 1469 1466 1471 1460 1448 1467 1467 1469 1473 1478 1485 1491 1496
1460 1451 1441 1437 1431 1427 1419 1413 1405 1407 1405 1404 1401 1403 1405 1406 1406 1403 1411 1418 1419 1419 1418 1420 1429 1420 1420 1423 1439 1455 1451 1456 1453 1464 1449 1447 1447 1463 1465 1468 1474 1478 1485 1490 1496
1457 1448 1443 1435 1426 1427 1425 1418 1397 1393 1395 1394 1396 1393 1391 1398 1403 1404 1409 1418 1420 1420 1421 1419 1427 1426 1436 1436 1436 1434 1436 1445 1452 1440 1451 1436 1446 1443 1454 1462 1469 1476 1484 1489 1496
1457 1449 1444 1437 1427 1419 1412 1399 1393 1387 1379 1380 1379 1382 1387 1385 1385 1397 1398 1405 1406 1419 1419 1423 1430 1438 1445 1442 1437 1436 1437 1438 1440 1442 1444 1449 1447 1453 1456 1464 1471 1476 1482 1488 1494
1454 1450 1445 1428 1422 1416 1405 1396 1393 1382 1371 1368 1369 1373 1378 1378 1383 1387 1389 1389 1395 1401 1409 1416 1430 1428 1426 1442 1440 1437 1429 1432 1433 1433 1438 1443 1435 1453 1460 1462 1466 1472 1479 1486 1493